Temp
-5 -5 -5 -5 -5 -5 -5 -5 -5 -5 -5 -5 -5 -5 -5 -5 -5 -5 -6 -6 -6 -6 -7 -7 -7 -7 -7 -6 -6 -6 -6 -6 -6 -6 -6 -6 -6 -6 -6 -6 -6 -6 -6 -6 -7 -7 -7 -7 -7
-5 -4 -5 -4 -5 -5 -5 -5 -5 -5 -5 -5 -5 -5 -5 -5 -5 -6 -6 -6 -6 -7 -7 -7 -7 -7 -7 -7 -6 -6 -6 -6 -6 -7 -6 -6 -6 -6 -6 -6 -6 -6 -6 -7 -7 -7 -7 -7 -7
-4 -4 -4 -5 -5 -5 -5 -4 -4 -5 -5 -5 -5 -5 -5 -5 -5 -6 -6 -6 -6 -7 -7 -7 -7 -7 -7 -7 -7 -7 -7 -7 -7 -7 -7 -6 -6 -6 -6 -6 -6 -6 -7 -7 -7 -7 -7 -7 -7
-4 -4 -4 -5 -5 -5 -4 -4 -5 -5 -5 -5 -5 -5 -6 -6 -6 -6 -6 -6 -6 -7 -7 -7 -7 -7 -7 -7 -7 -7 -7 -7 -7 -7 -7 -6 -6 -6 -6 -6 -6 -7 -7 -7 -7 -8 -8 -7 -7
-4 -4 -4 -4 -5 -5 -5 -5 -5 -5 -5 -5 -5 -6 -6 -6 -6 -6 -6 -6 -7 -7 -7 -7 -7 -7 -7 -7 -7 -7 -7 -7 -7 -7 -6 -6 -6 -6 -6 -7 -7 -7 -7 -7 -7 -7 -7 -7 -8
-4 -4 -4 -5 -5 -5 -5 -5 -5 -5 -5 -5 -6 -6 -6 -6 -7 -6 -6 -7 -7 -7 -7 -7 -7 -7 -7 -7 -7 -7 -7 -7 -7 -7 -7 -6 -6 -6 -7 -7 -7 -7 -7 -7 -7 -7 -7 -7 -8
-4 -4 -4 -5 -4 -5 -5 -5 -5 -5 -6 -5 -5 -5 -6 -6 -7 -7 -7 -7 -7 -7 -8 -7 -7 -7 -7 -7 -7 -7 -7 -7 -7 -7 -7 -7 -6 -7 -7 -7 -7 -7 -7 -7 -7 -7 -7 -7 -7
-4 -4 -4 -4 -4 -4 -5 -5 -5 -5 -6 -6 -6 -6 -5 -6 -7 -7 -7 -7 -7 -8 -8 -7 -7 -7 -7 -7 -7 -7 -7 -7 -7 -7 -7 -7 -7 -7 -7 -7 -7 -7 -7 -7 -7 -7 -7 -7 -7
-4 -5 -4 -4 -4 -4 -5 -5 -5 -5 -5 -6 -6 -6 -6 -6 -7 -7 -7 -6 -7 -7 -7 -7 -7 -7 -7 -7 -7 -7 -7 -7 -7 -7 -7 -7 -7 -7 -7 -7 -7 -7 -7 -7 -7 -8 -8 -7 -7
-4 -5 -4 -4 -5 -5 -5 -5 -5 -6 -5 -5 -5 -5 -6 -6 -6 -6 -6 -6 -6 -6 -6 -7 -7 -7 -7 -7 -7 -7 -7 -6 -7 -7 -6 -6 -7 -7 -7 -7 -7 -7 -8 -8 -8 -8 -8 -8 -8
-5 -5 -4 -4 -4 -5 -5 -5 -6 -6 -6 -5 -6 -5 -6 -6 -6 -6 -6 -6 -5 -6 -6 -6 -7 -7 -7 -7 -7 -7 -7 -6 -6 -6 -6 -6 -7 -7 -7 -7 -8 -8 -8 -8 -8 -8 -8 -8 -8
-4 -4 -4 -4 -4 -5 -5 -5 -5 -5 -5 -5 -5 -5 -5 -5 -6 -5 -5 -5 -5 -5 -6 -6 -6 -7 -7 -6 -6 -6 -7 -7 -6 -6 -6 -6 -7 -7 -7 -7 -7 -7 -8 -8 -8 -8 -8 -8 -8
-5 -5 -4 -4 -4 -4 -5 -5 -5 -5 -5 -5 -5 -5 -5 -5 -6 -6 -5 -6 -5 -5 -5 -5 -6 -6 -7 -7 -6 -6 -6 -6 -7 -6 -6 -6 -7 -7 -7 -7 -7 -7 -7 -7 -8 -8 -8 -8 -8
-5 -5 -5 -4 -4 -4 -5 -5 -5 -4 -5 -5 -5 -5 -5 -5 -6 -6 -5 -5 -5 -5 -4 -5 -6 -6 -6 -6 -6 -6 -6 -6 -6 -6 -6 -6 -7 -7 -7 -7 -7 -7 -7 -7 -7 -7 -7 -7 -7
-5 -5 -5 -5 -5 -5 -5 -5 -5 -5 -5 -5 -5 -5 -5 -5 -6 -6 -5 -5 -5 -5 -4 -5 -5 -5 -6 -6 -6 -6 -6 -6 -6 -7 -6 -6 -7 -7 -7 -6 -6 -7 -7 -7 -7 -7 -7 -7 -7
-5 -5 -5 -5 -5 -5 -5 -5 -5 -5 -5 -5 -5 -5 -5 -5 -5 -5 -5 -5 -5 -4 -4 -4 -5 -5 -5 -6 -6 -6 -6 -6 -6 -6 -6 -7 -7 -7 -6 -6 -6 -6 -6 -7 -7 -7 -7 -7 -7
-6 -7 -5 -5 -5 -5 -5 -5 -5 -5 -5 -5 -5 -5 -5 -5 -5 -5 -4 -4 -4 -5 -4 -4 -4 -5 -5 -5 -5 -6 -6 -6 -5 -6 -6 -6 -6 -6 -6 -6 -6 -6 -6 -7 -7 -7 -7 -7 -7
-7 -5 -5 -6 -5 -5 -5 -5 -5 -5 -5 -5 -5 -5 -5 -5 -5 -5 -5 -4 -4 -4 -4 -4 -4 -4 -5 -5 -5 -5 -5 -6 -5 -5 -6 -6 -6 -6 -6 -6 -6 -7 -7 -6 -6 -6 -6 -7 -7
-5 -5 -5 -5 -5 -5 -5 -5 -5 -5 -5 -4 -4 -4 -5 -5 -5 -5 -5 -5 -5 -5 -4 -4 -4 -4 -4 -4 -5 -5 -5 -5 -5 -5 -5 -6 -6 -6 -6 -6 -6 -7 -7 -7 -7 -6 -6 -6 -6
-6 -5 -5 -5 -5 -5 -5 -5 -5 -4 -4 -4 -4 -4 -4 -4 -5 -5 -5 -4 -4 -4 -4 -4 -4 -4 -4 -5 -5 -5 -5 -5 -5 -6 -6 -6 -6 -6 -6 -6 -7 -7 -7 -7 -7 -7 -7 -7 -7
-6 -6 -6 -5 -5 -5 -5 -5 -5 -4 -4 -4 -4 -4 -4 -4 -4 -5 -5 -4 -4 -4 -4 -4 -5 -5 -5 -5 -5 -5 -6 -5 -6 -5 -5 -6 -6 -6 -6 -7 -7 -7 -7 -7 -7 -7 -7 -7 -7
-7 -6 -6 -6 -5 -5 -5 -5 -4 -4 -5 -5 -5 -5 -4 -4 -4 -4 -5 -5 -5 -5 -5 -5 -5 -5 -6 -6 -6 -6 -6 -6 -6 -6 -6 -6 -6 -6 -6 -7 -6 -7 -7 -6 -7 -7 -7 -7 -7
-6 -6 -6 -6 -6 -6 -6 -6 -6 -6 -6 -6 -5 -5 -5 -5 -5 -5 -5 -6 -6 -5 -5 -5 -5 -5 -5 -6 -7 -7 -7 -6 -6 -6 -6 -6 -6 -7 -7 -7 -6 -6 -7 -7 -7 -7 -7 -7 -7
-7 -6 -7 -6 -7 -7 -6 -6 -7 -7 -6 -6 -6 -6 -5 -6 -6 -6 -5 -6 -7 -6 -6 -5 -5 -5 -5 -5 -6 -6 -7 -6 -6 -7 -6 -6 -7 -7 -7 -6 -7 -7 -7 -7 -7 -7 -7 -7 -7
-7 -7 -8 -7 -7 -7 -7 -6 -7 -7 -7 -7 -6 -6 -6 -6 -6 -6 -7 -6 -6 -7 -6 -6 -6 -6 -6 -6 -6 -6 -6 -6 -6 -6 -6 -6 -6 -7 -7 -6 -7 -7 -7 -7 -7 -7 -7 -7 -7
-8 -9 -9 -8 -7 -7 -7 -7 -7 -7 -7 -7 -7 -7 -7 -7 -7 -7 -7 -7 -7 -7 -7 -7 -7 -7 -7 -7 -7 -7 -7 -7 -7 -7 -7 -7 -7 -7 -7 -7 -7 -7 -7 -7 -8 -8 -7 -7 -7
-8 -7 -9 -9 -8 -8 -8 -8 -6 -7 -7 -7 -7 -7 -7 -7 -7 -7 -7 -7 -7 -7 -7 -6 -6 -6 -7 -7 -8 -8 -7 -7 -7 -6 -7 -7 -7 -7 -7 -7 -7 -7 -7 -7 -8 -8 -8 -8 -8
-7 -8 -8 -8 -9 -9 -8 -8 -9 -7 -7 -7 -7 -7 -8 -8 -8 -7 -8 -8 -8 -8 -7 -6 -6 -7 -7 -7 -7 -7 -7 -7 -6 -7 -7 -6 -6 -7 -7 -7 -8 -7 -8 -8 -9 -8 -8 -8 -8
-9 -8 -8 -9 -9 -9 -8 -8 -9 -9 -8 -8 -8 -8 -8 -9 -9 -9 -9 -9 -8 -8 -8 -7 -6 -7 -7 -7 -7 -7 -8 -8 -7 -7 -7 -8 -8 -8 -8 -8 -9 -9 -10 -9 -8 -9 -8 -8 -9
-9 -9 -10 -9 -9 -9 -9 -9 -9 -9 -9 -9 -9 -9 -8 -8 -9 -9 -9 -9 -9 -9 -9 -8 -8 -9 -9 -10 -8 -10 -9 -10 -9 -9 -8 -8 -9 -10 -10 -11 -11 -9 -9 -9 -8 -8 -8 -8 -10
Height
5905 5906 5907 5909 5912 5913 5913 5914 5915 5916 5916 5916 5916 5916 5916 5915 5916 5919 5916 5916 5915 5914 5914 5915 5915 5915 5915 5915 5915 5915 5915 5916 5916 5917 5917 5917 5918 5919 5918 5918 5918 5917 5916 5915 5913 5913 5913 5912 5912
5907 5908 5908 5909 5913 5914 5915 5916 5916 5917 5918 5918 5918 5918 5918 5918 5918 5919 5918 5917 5916 5916 5917 5917 5917 5917 5918 5917 5917 5917 5917 5917 5918 5919 5919 5919 5920 5921 5920 5921 5920 5920 5919 5918 5917 5916 5915 5915 5915
5909 5909 5911 5911 5914 5915 5917 5918 5918 5919 5919 5919 5920 5920 5920 5920 5920 5921 5920 5919 5918 5919 5919 5919 5919 5919 5919 5918 5918 5918 5919 5919 5920 5921 5921 5922 5923 5922 5923 5923 5922 5922 5922 5921 5920 5919 5918 5918 5918
5911 5912 5914 5916 5916 5918 5919 5920 5920 5921 5920 5920 5921 5922 5923 5923 5923 5922 5921 5920 5920 5920 5921 5921 5921 5921 5920 5919 5919 5919 5920 5921 5922 5923 5924 5924 5925 5925 5926 5925 5925 5925 5925 5924 5923 5923 5921 5921 5921
5913 5915 5917 5919 5920 5921 5923 5922 5923 5922 5922 5922 5923 5924 5925 5924 5924 5924 5923 5922 5921 5922 5923 5923 5922 5921 5921 5921 5921 5921 5922 5923 5924 5925 5926 5926 5927 5926 5927 5928 5928 5929 5928 5927 5927 5926 5925 5925 5925
5916 5918 5920 5922 5922 5923 5923 5923 5924 5924 5924 5923 5924 5925 5926 5925 5925 5925 5924 5923 5923 5924 5924 5924 5923 5923 5923 5923 5923 5923 5924 5925 5925 5926 5928 5929 5929 5929 5929 5929 5930 5931 5930 5930 5931 5930 5930 5929 5928
5917 5919 5922 5923 5923 5924 5925 5925 5925 5925 5926 5926 5927 5927 5927 5926 5926 5926 5925 5924 5924 5924 5924 5925 5925 5924 5925 5925 5925 5925 5925 5926 5927 5928 5930 5930 5930 5931 5932 5932 5933 5934 5934 5933 5933 5933 5933 5932 5931
5918 5921 5923 5924 5924 5925 5926 5927 5927 5927 5927 5928 5928 5928 5927 5927 5926 5926 5926 5926 5925 5924 5925 5926 5927 5926 5927 5927 5927 5927 5928 5929 5930 5930 5931 5932 5933 5934 5936 5936 5936 5936 5936 5936 5937 5936 5936 5935 5934
5920 5924 5925 5926 5925 5925 5926 5927 5928 5928 5928 5929 5928 5929 5929 5928 5927 5927 5927 5927 5926 5925 5926 5927 5928 5928 5929 5929 5929 5930 5931 5931 5932 5933 5933 5934 5934 5936 5937 5939 5940 5940 5940 5939 5938 5938 5938 5937 5936
5922 5925 5926 5927 5927 5927 5926 5927 5928 5930 5930 5930 5930 5929 5930 5930 5928 5929 5929 5928 5927 5927 5928 5929 5929 5930 5931 5931 5932 5933 5933 5934 5934 5935 5935 5936 5936 5937 5939 5940 5941 5941 5941 5941 5940 5940 5939 5938 5938
5925 5926 5925 5926 5927 5927 5928 5928 5930 5931 5932 5932 5931 5931 5931 5931 5930 5931 5931 5931 5930 5930 5931 5932 5932 5932 5932 5933 5934 5935 5935 5935 5936 5936 5937 5937 5938 5940 5941 5941 5942 5942 5942 5942 5942 5941 5940 5940 5939
5927 5926 5927 5927 5927 5927 5928 5929 5931 5932 5933 5933 5933 5933 5933 5933 5932 5932 5932 5933 5933 5934 5934 5935 5935 5935 5934 5934 5936 5937 5938 5938 5937 5938 5939 5940 5941 5941 5942 5942 5943 5942 5943 5943 5944 5943 5942 5941 5940
5928 5929 5930 5929 5928 5928 5928 5930 5931 5932 5933 5933 5934 5934 5934 5934 5934 5933 5933 5934 5935 5935 5936 5937 5937 5937 5937 5937 5936 5938 5940 5941 5941 5940 5940 5940 5941 5942 5943 5944 5944 5944 5944 5944 5944 5944 5943 5942 5941
5928 5930 5932 5933 5932 5931 5932 5931 5932 5932 5933 5933 5933 5934 5934 5934 5934 5934 5934 5935 5936 5937 5938 5939 5940 5940 5939 5939 5939 5941 5941 5942 5942 5943 5943 5942 5942 5942 5943 5944 5944 5944 5944 5944 5944 5944 5943 5942 5941
5930 5932 5932 5933 5933 5933 5933 5933 5933 5933 5933 5933 5934 5934 5935 5935 5934 5934 5934 5934 5936 5937 5938 5939 5941 5941 5941 5941 5941 5942 5943 5944 5944 5944 5944 5943 5943 5943 5943 5943 5943 5943 5944 5943 5942 5942 5941 5940 5940
5929 5931 5932 5932 5932 5933 5934 5934 5933 5933 5934 5934 5934 5935 5935 5935 5935 5933 5933 5934 5935 5937 5938 5939 5939 5941 5942 5942 5942 5942 5942 5942 5943 5944 5944 5944 5943 5943 5943 5943 5943 5942 5942 5942 5941 5941 5940 5940 5939
5930 5932 5932 5933 5933 5933 5933 5933 5933 5933 5934 5934 5935 5935 5935 5936 5935 5934 5933 5934 5935 5935 5936 5937 5938 5939 5939 5940 5941 5942 5943 5942 5941 5942 5941 5941 5941 5942 5943 5942 5942 5942 5941 5941 5941 5940 5939 5939 5938
5932 5931 5932 5933 5934 5932 5932 5933 5932 5932 5933 5933 5934 5935 5935 5935 5936 5937 5935 5934 5935 5935 5935 5936 5937 5938 5938 5938 5939 5939 5940 5940 5941 5941 5941 5941 5940 5939 5939 5941 5940 5940 5939 5938 5938 5938 5938 5937 5936
5931 5932 5933 5933 5933 5933 5933 5934 5934 5933 5933 5933 5933 5934 5934 5934 5936 5937 5936 5935 5935 5935 5934 5934 5935 5936 5936 5937 5937 5937 5938 5938 5938 5937 5937 5938 5938 5938 5937 5936 5937 5938 5938 5937 5936 5935 5935 5935 5935
5932 5933 5935 5933 5933 5934 5934 5934 5933 5933 5933 5932 5933 5933 5933 5933 5933 5936 5937 5936 5935 5934 5934 5934 5933 5933 5934 5934 5935 5935 5935 5935 5935 5935 5935 5935 5935 5936 5936 5935 5934 5934 5934 5934 5932 5932 5932 5932 5931
5933 5933 5934 5934 5934 5934 5934 5936 5935 5934 5934 5933 5933 5932 5932 5931 5931 5932 5934 5936 5936 5935 5934 5933 5933 5933 5931 5931 5931 5931 5932 5932 5933 5933 5933 5932 5932 5931 5931 5931 5931 5930 5930 5930 5928 5928 5927 5927 5927
5934 5933 5934 5934 5935 5936 5935 5936 5934 5934 5934 5932 5933 5934 5933 5932 5931 5930 5930 5932 5933 5933 5933 5932 5931 5931 5931 5930 5929 5928 5928 5929 5928 5928 5927 5927 5927 5926 5926 5927 5927 5926 5925 5925 5925 5924 5923 5922 5922
5933 5933 5934 5935 5935 5936 5935 5936 5933 5933 5932 5932 5931 5931 5931 5930 5930 5929 5928 5928 5929 5929 5929 5929 5928 5927 5927 5926 5925 5924 5925 5923 5923 5923 5921 5921 5922 5922 5921 5919 5920 5920 5920 5919 5919 5920 5920 5920 5919
5930 5931 5933 5934 5935 5936 5933 5935 5936 5933 5931 5930 5929 5928 5927 5927 5926 5927 5927 5926 5924 5925 5925 5924 5924 5923 5922 5922 5921 5920 5919 5917 5916 5915 5915 5915 5915 5914 5914 5912 5912 5913 5913 5913 5913 5912 5913 5913 5914
5927 5928 5933 5935 5936 5937 5931 5932 5933 5930 5930 5929 5927 5925 5925 5924 5924 5923 5923 5923 5922 5921 5921 5920 5920 5920 5918 5917 5916 5915 5912 5910 5910 5908 5907 5906 5907 5906 5904 5904 5903 5903 5904 5906 5906 5906 5906 5907 5906
5920 5925 5928 5926 5931 5935 5927 5927 5929 5926 5925 5925 5925 5923 5921 5922 5921 5920 5919 5918 5918 5916 5914 5915 5913 5912 5911 5912 5910 5907 5905 5902 5901 5899 5896 5895 5894 5895 5896 5896 5895 5893 5893 5894 5896 5896 5897 5897 5896
5919 5918 5922 5923 5926 5924 5925 5925 5923 5920 5919 5920 5919 5918 5917 5917 5917 5916 5916 5915 5913 5911 5911 5907 5906 5904 5904 5901 5899 5897 5892 5891 5894 5888 5877 5878 5881 5882 5884 5885 5885 5880 5883 5884 5883 5884 5886 5888 5888
5911 5912 5915 5917 5917 5917 5921 5920 5917 5915 5913 5913 5912 5912 5912 5911 5911 5911 5910 5910 5908 5905 5905 5902 5899 5896 5892 5890 5887 5884 5887 5881 5883 5877 5858 5865 5865 5868 5872 5876 5871 5872 5874 5877 5875 5876 5876 5875 5878
5904 5905 5906 5909 5911 5911 5913 5917 5911 5907 5908 5906 5906 5906 5906 5905 5905 5903 5902 5901 5900 5898 5896 5893 5890 5882 5867 5879 5868 5871 5872 5872 5870 5870 5865 5863 5865 5862 5861 5861 5861 5862 5866 5866 5866 5867 5867 5867 5868
5899 5900 5903 5905 5906 5905 5903 5905 5904 5901 5900 5900 5899 5899 5899 5899 5898 5897 5896 5896 5894 5892 5889 5886 5883 5878 5875 5868 5864 5866 5862 5858 5862 5862 5854 5855 5850 5852 5854 5854 5855 5857 5856 5857 5857 5858 5858 5857 5856
Wind_Speed
19 18 16 17 18 17 16 15 16 14 14 14 12 11 12 13 11 10 9 9 11 11 12 12 12 11 10 8 7 7 6 8 7 9 10 11 14 14 14 13 16 18 19 20 24 24 22 21 19
16 13 17 19 18 17 15 17 15 13 14 14 11 12 11 12 11 9 10 10 13 12 13 12 11 11 10 8 8 8 8 8 10 11 12 14 15 15 14 16 19 19 22 23 26 26 25 24 22
12 14 19 20 21 18 15 15 13 15 14 14 12 12 12 12 10 9 10 10 12 12 12 12 10 8 9 8 9 9 9 10 12 13 15 16 16 15 16 19 20 22 23 26 27 27 26 25 23
12 14 18 17 17 15 15 12 10 13 14 13 14 13 12 10 10 10 11 11 11 9 9 11 11 12 11 9 9 10 12 14 16 17 18 18 17 16 18 20 21 23 25 26 26 26 25 24 22
14 15 16 12 13 12 12 9 11 13 13 13 15 13 11 10 9 8 8 9 10 8 8 11 12 13 12 15 15 16 17 21 21 20 20 19 17 19 20 21 22 22 23 23 23 23 23 22 22
15 16 17 14 13 13 11 9 11 11 11 12 14 12 10 9 7 5 6 7 8 8 8 11 12 13 16 19 20 23 24 24 23 22 22 19 18 21 21 22 21 21 22 21 20 21 21 21 20
15 17 17 15 14 13 11 9 9 9 9 9 10 8 8 8 7 5 5 6 7 8 8 10 10 14 17 20 24 25 25 23 23 23 21 18 19 20 21 21 21 19 19 18 17 18 19 18 19
19 17 17 15 13 12 11 10 8 10 11 11 7 4 5 6 8 6 5 7 8 7 9 10 10 15 18 20 23 24 23 24 23 22 20 20 19 18 19 18 18 17 16 14 13 14 15 15 15
15 15 13 12 11 11 10 9 8 10 12 9 10 7 4 5 9 7 5 7 7 8 10 10 11 15 18 18 19 22 22 23 23 23 21 20 20 20 19 17 15 14 13 12 10 10 11 10 12
14 11 10 9 10 10 11 9 7 6 6 6 5 7 4 4 9 8 6 8 9 11 12 10 14 16 18 16 16 19 21 21 21 22 22 21 21 21 19 16 15 15 13 11 10 9 7 7 9
12 10 10 11 11 11 9 9 7 5 4 5 5 3 3 4 7 8 10 9 11 12 13 12 14 17 17 16 15 18 19 19 19 19 20 20 20 18 16 15 14 11 10 10 10 7 4 4 6
8 8 10 11 11 12 10 10 8 5 3 1 0 3 2 2 5 7 10 11 10 12 13 12 13 14 17 17 17 17 17 17 16 16 15 15 17 15 14 12 11 10 10 11 9 6 5 2 5
7 6 7 11 12 11 11 11 8 5 3 3 2 1 2 3 3 5 9 10 10 12 11 11 11 14 15 15 18 18 16 14 13 13 13 13 13 11 9 7 7 5 6 5 5 5 3 4 4
8 6 3 3 5 7 6 5 6 4 3 3 2 1 3 4 5 4 8 9 9 11 10 9 10 11 13 15 15 16 16 15 12 11 10 9 9 8 8 6 4 2 3 3 3 3 3 5 4
8 5 4 2 1 2 3 3 3 4 4 4 3 1 2 5 6 7 8 10 9 10 10 9 8 10 11 12 13 13 13 12 11 10 9 7 7 6 6 6 5 4 2 2 2 1 0 1 3
9 6 4 4 4 4 3 4 4 3 3 3 3 3 3 3 4 8 9 12 12 10 9 10 11 9 9 9 10 10 11 11 9 9 7 7 7 8 5 4 3 2 3 4 4 4 4 5 6
12 8 8 7 5 2 3 2 4 5 6 4 4 5 5 4 4 7 10 11 12 12 11 10 12 11 11 9 9 10 10 10 9 9 10 9 8 7 7 7 6 6 5 5 4 5 4 5 7
9 9 10 9 6 3 4 3 4 5 7 6 4 7 7 6 5 6 9 12 13 12 12 12 12 12 11 11 10 11 12 12 11 10 10 10 10 10 10 10 9 7 6 5 4 5 4 5 6
13 14 12 10 9 7 5 5 4 5 5 5 5 8 9 7 6 8 9 10 11 13 14 15 15 15 13 11 10 11 11 12 12 13 12 12 12 12 11 10 9 9 8 7 7 7 6 7 8
14 14 14 14 10 8 9 8 6 5 4 4 4 5 8 7 9 10 10 10 12 12 12 15 16 16 15 14 14 14 15 15 15 15 16 15 14 13 14 15 14 14 13 13 13 12 12 12 11
11 12 6 9 8 8 9 4 4 5 5 7 7 7 7 8 9 9 12 12 11 13 14 16 17 19 19 18 17 18 18 18 17 16 18 18 18 18 19 21 20 18 16 16 16 18 17 18 16
9 13 8 8 9 11 10 10 10 6 8 11 8 9 11 12 11 9 10 12 14 15 16 18 20 21 23 22 22 23 22 20 20 19 19 21 22 22 22 27 25 22 19 19 17 15 18 18 17
6 7 8 8 9 12 15 12 15 11 9 11 10 10 10 14 14 13 10 10 13 17 19 21 23 25 26 26 26 26 24 24 24 23 24 24 25 27 29 25 28 25 23 23 20 19 18 18 16
13 13 13 11 9 9 19 14 8 13 16 16 14 14 13 12 14 17 20 16 14 16 19 22 26 29 31 31 30 29 29 29 29 30 29 28 29 31 31 30 28 30 28 24 23 21 19 20 20
17 15 10 12 9 10 21 23 18 17 14 17 19 19 13 13 12 13 13 17 16 18 19 23 25 28 30 31 32 34 34 35 35 35 33 33 34 35 36 34 30 34 30 27 28 26 22 23 21
23 17 18 21 12 15 23 22 19 21 22 22 20 22 23 18 18 17 19 20 22 22 25 26 28 29 33 33 38 40 41 40 40 40 42 40 41 43 40 38 39 42 39 32 31 31 31 29 27
24 24 18 22 19 25 21 21 19 24 22 21 17 17 26 25 22 21 20 20 23 27 26 30 32 35 34 37 37 41 45 49 38 40 47 45 51 49 42 44 35 30 33 36 38 34 33 34 32
23 25 22 20 23 24 20 19 19 18 20 20 19 18 18 22 26 27 28 26 26 30 31 35 37 38 38 46 40 40 45 44 42 45 39 42 59 50 44 38 23 25 27 28 21 29 33 25 36
21 23 24 24 23 21 20 14 20 27 21 19 19 18 18 19 23 28 27 29 30 32 37 37 46 50 36 47 41 41 37 45 54 57 57 24 33 23 34 29 23 22 25 23 26 30 36 38 34
24 25 22 23 20 19 21 19 22 27 20 21 22 22 23 25 26 25 27 31 34 38 40 40 44 46 50 48 47 44 39 40 41 41 57 45 48 35 29 31 24 28 29 29 30 31 37 40 42
Wind_Direction
133 136 137 139 131 136 135 134 133 125 113 114 113 114 116 121 112 96 92 87 85 88 102 109 106 93 83 81 85 98 72 67 77 78 83 92 96 96 88 85 91 91 87 88 87 89 89 87 80
134 132 130 129 126 136 139 142 136 123 111 113 116 110 114 108 98 90 82 78 85 96 107 104 95 90 102 88 89 87 93 90 87 86 90 95 100 97 93 98 97 97 95 92 88 86 84 81 76
128 123 138 136 135 143 146 145 142 122 117 108 103 98 106 102 97 91 90 87 90 100 108 101 93 87 76 81 90 92 92 91 93 92 96 98 98 100 101 104 103 101 97 90 87 84 82 80 78
114 140 141 139 133 140 145 133 147 128 117 108 106 100 99 95 89 92 94 98 98 106 113 108 87 72 67 78 92 100 98 97 97 99 100 102 101 101 108 109 104 102 98 94 90 88 85 83 81
115 135 136 131 140 149 146 125 127 132 120 111 110 106 100 82 78 83 86 91 99 103 94 112 83 68 80 101 104 104 101 102 105 104 103 103 105 110 114 111 107 106 101 98 96 91 87 83 77
123 125 129 126 124 135 146 132 115 120 117 115 117 121 114 95 82 65 77 88 90 91 87 111 85 84 104 110 109 108 108 109 108 108 106 106 108 117 121 118 115 111 107 101 95 93 89 82 79
127 130 138 138 139 135 133 127 115 115 111 120 127 132 117 107 85 50 67 71 74 85 91 105 84 99 109 111 113 112 111 113 114 112 111 109 113 123 127 121 118 118 110 106 100 91 87 83 79
132 141 146 153 153 141 136 135 124 131 132 127 121 93 90 100 83 58 45 55 60 80 103 109 86 110 111 113 118 118 116 115 115 114 109 107 113 116 120 120 124 123 114 106 93 80 81 77 75
144 144 157 167 161 146 143 143 137 152 151 137 117 95 69 90 79 65 56 59 61 95 114 111 99 115 115 120 123 122 116 114 117 116 112 113 114 114 119 125 128 123 118 111 100 81 68 61 59
147 154 172 173 174 157 147 156 141 164 154 126 101 108 102 82 81 73 70 72 89 109 118 110 114 123 121 122 122 121 115 114 117 121 119 119 118 120 123 130 129 133 133 119 99 81 59 42 39
140 160 157 158 158 156 154 152 151 158 164 134 111 101 109 80 87 90 93 80 103 111 106 109 124 129 124 120 121 124 121 116 120 123 128 123 126 126 126 134 124 122 126 117 112 108 93 31 12
153 157 152 160 153 149 154 157 164 156 148 119 124 147 137 80 94 105 104 102 103 98 98 105 122 127 129 129 127 129 129 125 122 122 125 126 127 131 134 135 139 139 133 114 103 95 77 26 350
168 181 184 173 153 147 154 155 155 157 168 150 165 167 156 128 128 128 122 115 117 110 104 107 122 131 128 132 134 134 133 127 123 124 131 136 140 138 136 137 142 154 129 123 118 94 65 30 9
184 170 191 179 167 149 156 159 156 161 191 194 178 185 170 168 166 170 145 136 133 127 116 117 121 133 138 136 137 140 140 136 139 134 141 148 147 143 138 137 143 164 123 105 90 82 36 30 29
163 172 163 154 189 172 186 205 203 185 194 220 239 223 197 182 171 171 172 161 155 147 138 135 134 138 144 141 146 146 146 144 146 151 151 154 160 154 142 152 160 182 192 173 184 192 240 347 358
159 161 184 185 200 192 182 228 233 259 252 241 232 212 229 210 192 182 183 180 176 162 156 157 157 158 162 165 167 170 164 168 162 174 176 178 181 195 211 218 235 241 248 256 264 261 282 300 308
161 204 203 202 202 250 227 260 283 284 286 276 273 258 234 229 233 210 182 184 181 178 171 175 175 176 173 181 188 188 195 194 194 192 194 200 209 230 247 249 253 272 277 288 284 273 283 282 293
193 193 201 193 211 167 188 245 277 293 290 285 262 255 252 236 244 232 204 187 182 184 184 184 182 184 188 192 198 203 204 215 223 218 215 221 228 231 238 252 252 249 250 255 270 290 291 275 267
182 185 192 181 178 173 190 213 215 239 253 283 256 230 243 239 244 244 227 204 205 202 200 198 193 188 191 197 211 222 225 224 223 228 221 224 227 233 234 229 241 246 248 256 259 264 268 277 283
178 178 193 197 206 199 197 207 201 210 226 257 267 238 228 215 231 244 245 228 223 222 215 212 212 208 216 223 225 229 237 241 241 244 245 236 233 235 241 236 238 245 252 256 258 262 258 252 248
185 191 212 219 210 209 209 208 268 263 260 255 254 250 240 226 220 229 250 249 247 241 235 229 228 229 235 239 241 242 239 244 247 251 256 254 248 245 250 245 250 245 249 255 256 250 252 250 242
217 241 248 223 223 212 197 190 178 238 259 268 273 281 286 286 269 245 250 260 255 255 257 251 245 244 249 250 252 253 251 251 251 249 254 257 257 249 246 253 250 252 249 251 253 252 243 252 265
246 251 242 263 267 234 230 218 244 264 274 277 268 270 257 267 265 264 247 266 285 283 271 267 261 259 253 248 246 250 256 251 250 252 254 257 260 259 253 260 250 247 245 248 245 246 250 253 260
247 249 247 257 253 233 235 216 272 258 275 286 289 272 272 274 260 262 269 270 279 280 279 276 273 269 267 266 259 253 252 252 250 251 254 259 259 256 253 253 258 243 242 240 243 238 248 253 259
256 268 271 277 269 252 247 244 238 248 262 280 283 280 264 246 272 276 277 276 271 272 276 272 276 277 277 279 276 269 262 261 259 257 258 260 259 253 250 249 255 246 238 246 248 245 254 256 265
256 254 247 241 236 276 273 249 252 252 269 270 259 262 272 257 258 264 269 275 278 275 270 278 278 267 267 269 274 271 264 259 260 261 259 259 256 255 255 254 255 256 247 232 242 244 252 252 250
265 263 258 259 270 271 268 280 260 267 267 263 269 267 258 262 267 269 269 271 275 276 279 280 281 276 280 274 273 291 263 258 267 269 262 267 261 251 251 250 258 249 234 230 234 242 251 257 260
263 265 267 275 272 262 275 285 290 281 279 279 284 282 277 271 270 270 272 274 272 274 275 277 277 273 275 277 271 277 272 257 257 263 255 259 248 256 240 245 237 240 246 246 256 258 242 255 270
273 270 272 265 255 265 275 276 262 281 292 287 279 270 272 271 269 271 274 278 278 279 279 279 270 284 277 284 270 276 279 297 265 273 256 273 249 261 240 242 311 295 306 302 292 273 265 266 277
261 258 257 263 274 276 278 275 278 282 289 290 284 290 275 272 273 272 273 269 270 274 277 276 278 289 290 316 303 315 328 325 308 299 272 281 301 319 310 317 302 291 282 279 274 275 274 272 276